When you browse on this site, cookies collect data to enhance your experience and personalize the content and advertising you see.
Visit our Privacy Policy to learn more. By continuing to use the site, you agree to this use of cookies and data.

Hourly Weather Coro

Today, 11 July, Saturday

Time Temperature Precipitation Wind Pressure Humidity
00:00 +27°C° 0 mm 5 mps 756 mmHg 91%
01:00 +26°C° 0 mm 5 mps 756 mmHg 91%
02:00 +27°C° 0 mm 5 mps 756 mmHg 90%
03:00 +27°C° 0 mm 5 mps 755 mmHg 90%
04:00 +27°C° 0 mm 5 mps 755 mmHg 89%
05:00 +27°C° 0 mm 6 mps 756 mmHg 87%
06:00 +28°C° 0 mm 6 mps 756 mmHg 85%
07:00 +28°C° 0 mm 6 mps 756 mmHg 84%
08:00 +29°C° 0 mm 6 mps 756 mmHg 76%
09:00 +32°C° 0 mm 7 mps 756 mmHg 69%
10:00 +34°C° 0 mm 7 mps 756 mmHg 62%
11:00 +35°C° 0 mm 7 mps 756 mmHg 58%
12:00 +35°C° 0 mm 8 mps 755 mmHg 54%
13:00 +37°C° 0 mm 9 mps 754 mmHg 50%
14:00 +37°C° 0 mm 8 mps 754 mmHg 51%
15:00 +35°C° 0 mm 8 mps 753 mmHg 52%
16:00 +35°C° 0 mm 8 mps 753 mmHg 53%
17:00 +33°C° 0 mm 8 mps 753 mmHg 64%
18:00 +30°C° 0 mm 7 mps 754 mmHg 75%
19:00 +28°C° 0 mm 7 mps 755 mmHg 87%
20:00 +27°C° 0 mm 6 mps 755 mmHg 88%
21:00 +27°C° 0 mm 6 mps 756 mmHg 90%
22:00 +26°C° 0 mm 6 mps 756 mmHg 92%
23:00 +26°C° 0.1 mm 5 mps 756 mmHg 93%

Tomorrow, 12 July, Sunday

Time Temperature Precipitation Wind Pressure Humidity
00:00 +26°C° 0.1 mm 5 mps 755 mmHg 93%
01:00 +26°C° 0.1 mm 5 mps 755 mmHg 94%
02:00 +26°C° 0.1 mm 4 mps 755 mmHg 94%
03:00 +26°C° 0.1 mm 4 mps 755 mmHg 94%
04:00 +26°C° 0.1 mm 4 mps 755 mmHg 94%
05:00 +27°C° 0 mm 4 mps 755 mmHg 90%
06:00 +27°C° 0 mm 5 mps 756 mmHg 86%
07:00 +28°C° 0 mm 5 mps 756 mmHg 82%
08:00 +30°C° 0 mm 5 mps 756 mmHg 73%
09:00 +33°C° 0 mm 5 mps 756 mmHg 65%
10:00 +35°C° 0 mm 5 mps 756 mmHg 57%
11:00 +36°C° 0 mm 6 mps 756 mmHg 54%
12:00 +36°C° 0 mm 7 mps 755 mmHg 52%
13:00 +38°C° 0 mm 7 mps 755 mmHg 49%
14:00 +35°C° 0.2 mm 7 mps 754 mmHg 58%
15:00 +34°C° 0.2 mm 7 mps 754 mmHg 67%
16:00 +32°C° 0.2 mm 7 mps 753 mmHg 76%
17:00 +30°C° 0.1 mm 6 mps 754 mmHg 80%
18:00 +29°C° 0.1 mm 6 mps 754 mmHg 85%
19:00 +28°C° 0.1 mm 6 mps 755 mmHg 89%
20:00 +28°C° 0 mm 6 mps 755 mmHg 90%
21:00 +27°C° 0 mm 5 mps 756 mmHg 91%
22:00 +27°C° 0 mm 5 mps 756 mmHg 92%
23:00 +27°C° 0 mm 5 mps 756 mmHg 92%

Day after tomorrow, 13 July, Monday

Time Temperature Precipitation Wind Pressure Humidity
00:00 +27°C° 0 mm 5 mps 755 mmHg 91%
01:00 +27°C° 0 mm 5 mps 755 mmHg 91%
02:00 +26°C° 0 mm 5 mps 755 mmHg 91%
03:00 +26°C° 0 mm 5 mps 755 mmHg 91%
04:00 +26°C° 0 mm 5 mps 755 mmHg 92%
05:00 +27°C° 0 mm 5 mps 756 mmHg 88%
06:00 +28°C° 0 mm 5 mps 756 mmHg 85%
07:00 +29°C° 0 mm 5 mps 756 mmHg 82%
08:00 +30°C° 0 mm 6 mps 756 mmHg 74%
09:00 +33°C° 0 mm 6 mps 757 mmHg 65%
10:00 +35°C° 0 mm 6 mps 757 mmHg 57%
11:00 +36°C° 0 mm 7 mps 756 mmHg 52%
12:00 +38°C° 0 mm 8 mps 756 mmHg 48%
13:00 +39°C° 0 mm 9 mps 755 mmHg 43%
14:00 +38°C° 0 mm 9 mps 755 mmHg 47%
15:00 +37°C° 0 mm 9 mps 754 mmHg 51%
16:00 +35°C° 0 mm 9 mps 754 mmHg 56%
17:00 +33°C° 0 mm 8 mps 755 mmHg 66%
18:00 +31°C° 0 mm 8 mps 755 mmHg 76%
19:00 +28°C° 0 mm 7 mps 756 mmHg 87%
20:00 +28°C° 0 mm 7 mps 756 mmHg 88%
21:00 +27°C° 0 mm 6 mps 756 mmHg 90%
22:00 +27°C° 0 mm 6 mps 757 mmHg 92%
23:00 +27°C° 0 mm 5 mps 757 mmHg 92%

14 July, Tuesday

Time Temperature Precipitation Wind Pressure Humidity
00:00 +26°C° 0 mm 5 mps 756 mmHg 92%
01:00 +26°C° 0 mm 5 mps 756 mmHg 93%
02:00 +26°C° 0 mm 5 mps 756 mmHg 92%
03:00 +26°C° 0 mm 5 mps 756 mmHg 92%
04:00 +26°C° 0 mm 4 mps 755 mmHg 92%
05:00 +27°C° 0 mm 5 mps 756 mmHg 88%
06:00 +28°C° 0 mm 5 mps 756 mmHg 85%
07:00 +29°C° 0 mm 5 mps 757 mmHg 82%
08:00 +30°C° 0.1 mm 5 mps 757 mmHg 76%
09:00 +33°C° 0.1 mm 6 mps 757 mmHg 69%
10:00 +34°C° 0.1 mm 6 mps 757 mmHg 63%
11:00 +35°C° 0.1 mm 6 mps 756 mmHg 58%
12:00 +36°C° 0.1 mm 7 mps 756 mmHg 53%
13:00 +38°C° 0.1 mm 7 mps 755 mmHg 48%
14:00 +36°C° 0.1 mm 7 mps 755 mmHg 51%
15:00 +35°C° 0.1 mm 7 mps 755 mmHg 53%
16:00 +35°C° 0.1 mm 7 mps 754 mmHg 56%
17:00 +33°C° 0 mm 7 mps 754 mmHg 67%
18:00 +30°C° 0 mm 6 mps 755 mmHg 77%
19:00 +28°C° 0 mm 6 mps 755 mmHg 87%
20:00 +28°C° 0 mm 6 mps 756 mmHg 89%
21:00 +27°C° 0 mm 6 mps 756 mmHg 91%
22:00 +27°C° 0 mm 5 mps 757 mmHg 93%
23:00 +26°C° 0 mm 5 mps 756 mmHg 93%

15 July, Wednesday

Time Temperature Precipitation Wind Pressure Humidity
00:00 +26°C° 0 mm 5 mps 756 mmHg 94%
01:00 +26°C° 0 mm 5 mps 756 mmHg 95%
02:00 +26°C° 0 mm 5 mps 755 mmHg 95%
03:00 +26°C° 0 mm 5 mps 755 mmHg 95%
04:00 +26°C° 0 mm 5 mps 755 mmHg 95%
05:00 +27°C° 0 mm 5 mps 756 mmHg 91%
06:00 +27°C° 0 mm 5 mps 756 mmHg 87%
07:00 +28°C° 0 mm 5 mps 756 mmHg 83%
08:00 +30°C° 0 mm 5 mps 756 mmHg 74%
09:00 +33°C° 0 mm 5 mps 756 mmHg 65%
10:00 +35°C° 0 mm 6 mps 756 mmHg 55%
11:00 +35°C° 0 mm 6 mps 756 mmHg 52%
12:00 +36°C° 0 mm 7 mps 755 mmHg 49%
13:00 +38°C° 0 mm 7 mps 754 mmHg 45%
14:00 +38°C° 0 mm 7 mps 754 mmHg 48%
15:00 +37°C° 0 mm 8 mps 753 mmHg 51%
16:00 +37°C° 0 mm 8 mps 753 mmHg 53%
17:00 +33°C° 0 mm 8 mps 753 mmHg 63%
18:00 +30°C° 0 mm 7 mps 754 mmHg 73%
19:00 +28°C° 0 mm 6 mps 754 mmHg 83%
20:00 +27°C° 0 mm 6 mps 755 mmHg 86%
21:00 +27°C° 0 mm 6 mps 755 mmHg 89%
22:00 +26°C° 0 mm 6 mps 756 mmHg 91%
23:00 +26°C° 0 mm 6 mps 755 mmHg 92%

16 July, Thursday

Time Temperature Precipitation Wind Pressure Humidity
00:00 +26°C° 0 mm 5 mps 755 mmHg 93%
01:00 +26°C° 0 mm 5 mps 755 mmHg 94%
02:00 +26°C° 0 mm 5 mps 755 mmHg 94%
03:00 +26°C° 0 mm 5 mps 755 mmHg 94%
04:00 +26°C° 0 mm 6 mps 755 mmHg 94%
05:00 +26°C° 0 mm 6 mps 755 mmHg 90%
06:00 +27°C° 0 mm 6 mps 755 mmHg 86%
07:00 +28°C° 0 mm 6 mps 756 mmHg 83%
08:00 +30°C° 0 mm 6 mps 756 mmHg 72%
09:00 +33°C° 0 mm 5 mps 756 mmHg 62%
10:00 +35°C° 0 mm 5 mps 756 mmHg 52%
11:00 +36°C° 0 mm 6 mps 755 mmHg 47%
12:00 +38°C° 0 mm 7 mps 755 mmHg 42%
13:00 +40°C° 0 mm 7 mps 754 mmHg 37%
14:00 +39°C° 0 mm 8 mps 754 mmHg 41%
15:00 +38°C° 0 mm 8 mps 753 mmHg 45%
16:00 +38°C° 0 mm 9 mps 753 mmHg 48%
17:00 +34°C° 0 mm 8 mps 753 mmHg 61%
18:00 +32°C° 0 mm 8 mps 754 mmHg 73%
19:00 +28°C° 0 mm 7 mps 754 mmHg 86%
20:00 +28°C° 0 mm 7 mps 755 mmHg 87%
21:00 +27°C° 0 mm 6 mps 755 mmHg 89%
22:00 +27°C° 0 mm 6 mps 756 mmHg 90%
23:00 +27°C° 0 mm 6 mps 755 mmHg 91%
Show more